Date String (YYYY-MM-DD hh:mm:ss) UTC,Instrument flags,Ambient pressure (hPa),Sample flow (lpm),Bypass flow (lpm),Sample temperature (°C),Ambient temperature (°C),ASC tube jacket temperature (°C),LED temperature (°C),Box temperature (°C),Sample RH (%),Span deviation,Mass concentration (μg/m³),Mass concentration (μg/m³),Mass concentration (μg/m³)
DateTimeUTC,F1_M11,P_M11,Q1_M11,Q2_M11,T1_M11,T2_M11,T3_M11,T4_M11,T5_M11,U1_M11,ZSPAN_M11,X0_M11,X2_M11,X1_M11
2022-10-03 12:00:00,,0829.0,5.00,0.00,30.1,28.7,00.0,38.8,31.9,19.6,0000.0,0005.65,0003.35,0003.07
2022-10-03 12:01:00,,0829.1,5.01,0.00,30.1,28.7,00.0,38.8,31.9,19.5,0000.0,0005.62,0003.38,0003.11
2022-10-03 12:02:00,,0829.1,5.00,0.00,30.1,28.7,00.0,38.8,31.9,19.6,0000.0,0005.67,0003.40,0003.13
2022-10-03 12:03:00,,0829.1,4.99,0.00,30.1,28.7,00.0,38.8,31.9,19.6,0000.0,0005.69,0003.41,0003.14
2022-10-03 12:04:00,,0829.0,5.00,0.00,30.1,28.7,00.0,38.8,31.9,19.7,0000.0,0005.74,0003.43,0003.16
2022-10-03 12:05:00,,0829.1,5.00,0.00,30.1,28.7,00.0,38.8,31.9,19.8,0000.0,0005.86,0003.47,0003.18
2022-10-03 12:06:00,,0829.1,5.00,0.00,30.1,28.7,00.0,38.8,31.9,19.9,0000.0,0005.79,0003.47,0003.20
2022-10-03 12:07:00,,0829.1,5.01,0.00,30.1,28.7,00.0,38.8,31.9,19.9,0000.0,0005.91,0003.49,0003.21
2022-10-03 12:08:00,,0829.2,4.99,0.00,30.1,28.7,00.0,38.8,31.9,19.9,0000.0,0006.06,0003.53,0003.22
2022-10-03 12:09:00,,0829.2,5.02,0.00,30.1,28.7,00.0,38.8,31.9,19.8,0000.0,0005.92,0003.56,0003.24
2022-10-03 12:10:00,,0829.2,4.98,0.00,30.1,28.7,00.0,38.8,31.9,19.7,0000.0,0005.72,0003.56,0003.24
2022-10-03 12:11:00,,0829.3,5.01,0.00,30.1,28.7,00.0,38.9,31.9,19.6,0000.0,0005.46,0003.54,0003.25
2022-10-03 12:12:00,,0829.3,5.00,0.00,30.1,28.7,00.0,38.9,31.9,19.6,0000.0,0005.50,0003.55,0003.25
2022-10-03 12:13:00,,0829.3,4.99,0.00,30.1,28.7,00.0,38.9,31.9,19.5,0000.0,0005.55,0003.56,0003.26
2022-10-03 12:14:00,,0829.3,5.01,0.00,30.1,28.7,00.0,38.9,31.9,19.6,0000.0,0005.52,0003.55,0003.25
2022-10-03 12:15:00,,0829.2,5.00,0.00,30.1,28.7,00.0,38.9,31.9,19.6,0000.0,0005.38,0003.51,0003.23
2022-10-03 12:16:00,,0829.2,4.99,0.00,30.1,28.7,00.0,38.9,31.9,19.7,0000.0,0005.22,0003.48,0003.21
2022-10-03 12:17:00,,0829.3,5.02,0.00,30.1,28.7,00.0,38.9,31.9,19.8,0000.0,0005.24,0003.45,0003.19
2022-10-03 12:18:00,,0829.3,4.99,0.00,30.1,28.7,00.0,38.9,31.9,19.6,0000.0,0005.14,0003.43,0003.17
2022-10-03 12:19:00,,0829.3,5.00,0.00,30.1,28.6,00.0,38.9,31.9,19.6,0000.0,0004.97,0003.39,0003.15
2022-10-03 12:20:00,,0829.2,5.01,0.00,30.1,28.6,00.0,38.9,31.9,19.6,0000.0,0004.79,0003.36,0003.13
2022-10-03 12:21:00,,0829.3,4.99,0.00,30.1,28.6,00.0,38.9,31.9,19.5,0000.0,0004.61,0003.33,0003.11
2022-10-03 12:22:00,,0829.3,5.00,0.00,30.1,28.6,00.0,38.9,31.9,19.4,0000.0,0004.70,0003.34,0003.09
2022-10-03 12:23:00,,0829.4,5.01,0.00,30.1,28.6,00.0,38.9,31.9,19.4,0000.0,0004.55,0003.29,0003.05
2022-10-03 12:24:00,,0829.3,4.99,0.00,30.1,28.6,00.0,38.9,31.9,19.3,0000.0,0004.61,0003.29,0003.03
2022-10-03 12:25:00,,0829.3,5.00,0.00,30.1,28.5,00.0,38.8,31.9,19.3,0000.0,0004.63,0003.27,0002.98
2022-10-03 12:26:00,,0829.3,5.01,0.00,30.1,28.5,00.0,38.8,31.9,19.3,0000.0,0004.67,0003.26,0002.95
2022-10-03 12:27:00,,0829.4,4.98,0.00,30.1,28.6,00.0,38.8,31.9,19.3,0000.0,0004.76,0003.24,0002.90
2022-10-03 12:28:00,,0829.3,5.00,0.00,30.0,28.5,00.0,38.8,31.9,19.2,0000.0,0004.85,0003.21,0002.86
2022-10-03 12:29:00,,0829.3,5.02,0.00,30.0,28.5,00.0,38.8,31.9,19.3,0000.0,0004.81,0003.17,0002.82
2022-10-03 12:30:00,,0829.4,4.99,0.00,30.0,28.5,00.0,38.8,31.8,19.4,0000.0,0004.82,0003.15,0002.78
2022-10-03 12:31:00,,0829.5,5.00,0.00,30.0,28.5,00.0,38.8,31.8,19.4,0000.0,0004.81,0003.14,0002.75
2022-10-03 12:32:00,,0829.5,4.99,0.00,30.0,28.5,00.0,38.8,31.9,19.4,0000.0,0004.86,0003.15,0002.73
2022-10-03 12:33:00,,0829.5,5.01,0.00,30.0,28.5,00.0,38.8,31.8,19.4,0000.0,0004.90,0003.14,0002.69
2022-10-03 12:34:00,,0829.5,5.01,0.00,30.0,28.5,00.0,38.8,31.8,19.4,0000.0,0004.91,0003.12,0002.66
2022-10-03 12:35:00,,0829.5,4.99,0.00,30.0,28.5,00.0,38.8,31.8,19.4,0000.0,0004.81,0003.11,0002.65
2022-10-03 12:36:00,,0829.5,5.01,0.00,30.0,28.5,00.0,38.8,31.7,19.4,0000.0,0004.78,0003.11,0002.66
2022-10-03 12:37:00,,0829.5,4.99,0.00,30.0,28.5,00.0,38.8,31.8,19.4,0000.0,0004.82,0003.13,0002.66
2022-10-03 12:38:00,,0829.5,5.02,0.00,30.0,28.5,00.0,38.8,31.7,19.3,0000.0,0004.69,0003.14,0002.67
2022-10-03 12:39:00,,0829.5,4.99,0.00,30.0,28.5,00.0,38.8,31.7,19.4,0000.0,0004.47,0003.14,0002.68
2022-10-03 12:40:00,,0829.5,5.01,0.00,30.0,28.5,00.0,38.8,31.7,19.3,0000.0,0004.35,0003.13,0002.69
2022-10-03 12:41:00,,0829.5,4.99,0.00,30.0,28.5,00.0,38.8,31.8,19.3,0000.0,0004.25,0003.11,0002.68
2022-10-03 12:42:00,,0829.5,5.01,0.00,30.0,28.5,00.0,38.8,31.8,19.7,0000.0,0004.18,0003.09,0002.69
2022-10-03 12:43:00,,0829.5,5.00,0.00,30.0,28.5,00.0,38.8,31.8,20.1,0000.0,0004.11,0003.05,0002.68
2022-10-03 12:44:00,,0829.5,4.99,0.00,30.0,28.5,00.0,38.8,31.7,20.0,0000.0,0004.01,0003.05,0002.69
2022-10-03 12:45:00,,0829.5,5.00,0.00,30.0,28.5,00.0,38.8,31.7,19.9,0000.0,0004.02,0003.06,0002.71
2022-10-03 12:46:00,,0829.5,5.01,0.00,30.0,28.5,00.0,38.8,31.7,19.8,0000.0,0003.88,0003.01,0002.70
2022-10-03 12:47:00,,0829.5,4.99,0.00,30.0,28.5,00.0,38.8,31.7,19.7,0000.0,0003.92,0002.98,0002.70
2022-10-03 12:48:00,,0829.5,5.01,0.00,30.0,28.4,00.0,38.8,31.7,19.7,0000.0,0003.92,0002.95,0002.69
2022-10-03 12:49:00,,0829.5,4.99,0.00,30.0,28.4,00.0,38.8,31.7,19.7,0000.0,0004.10,0003.02,0002.70
2022-10-03 12:50:00,,0829.4,5.01,0.00,30.0,28.4,00.0,38.8,31.8,19.4,0000.0,0004.12,0003.03,0002.70
2022-10-03 12:51:00,,0829.5,5.01,0.00,29.9,28.4,00.0,38.8,31.8,19.2,0000.0,0004.86,0003.06,0002.69
2022-10-03 12:52:00,,0829.5,4.99,0.00,29.9,28.4,00.0,38.7,31.7,19.4,0000.0,0005.22,0003.08,0002.68
2022-10-03 12:53:00,,0829.5,5.00,0.00,29.9,28.4,00.0,38.7,31.7,19.4,0000.0,0005.27,0003.09,0002.67
2022-10-03 12:54:00,,0829.5,5.00,0.00,29.9,28.3,00.0,38.7,31.7,19.4,0000.0,0005.53,0003.12,0002.66
2022-10-03 12:55:00,,0829.5,5.00,0.00,29.9,28.3,00.0,38.7,31.7,19.3,0000.0,0005.91,0003.11,0002.64
2022-10-03 12:56:00,,0829.5,5.01,0.00,29.9,28.3,00.0,38.7,31.7,19.3,0000.0,0005.95,0003.10,0002.61
2022-10-03 12:57:00,,0829.5,4.99,0.00,29.9,28.4,00.0,38.7,31.7,19.2,0000.0,0006.06,0003.11,0002.60
2022-10-03 12:58:00,,0829.5,5.00,0.00,29.9,28.4,00.0,38.7,31.7,19.2,0000.0,0006.13,0003.13,0002.58
2022-10-03 12:59:00,,0829.5,5.01,0.00,29.9,28.3,00.0,38.7,31.7,19.2,0000.0,0006.15,0003.12,0002.55
